RYR6RR EGSS-LEAM

Flight info

Callsign RYR6RR
Flight time 2h 36m
Altitude 35000
Route NUGBO M183 SILVA Q41 COWLY UT71 VAPID UN859 SOPIL DCT BALAN DCT LMG DCT PIMQO DCT AGN DCT ANETO N860 DOSEK
Aircraft B738/M-SDE3FGILRWY/SB1

Departure

Time 2026-04-26 18:15
Airport London Stansted Airport (EGSS)

Arrival

Time 2026-04-26 20:51
Airport Almería Airport (LEAM)
Time Latitude Longitude Altitude Speed Heading
2026-04-26 17:38 51.89058 0.25661 352 ft 0 kts 43°
2026-04-26 18:01 51.89056 0.25659 351 ft 2 kts 43°
2026-04-26 18:01 51.89040 0.25634 351 ft 2 kts 43°
2026-04-26 18:02 51.89021 0.25615 351 ft 4 kts 351°
2026-04-26 18:02 51.89007 0.25624 354 ft 4 kts 314°
2026-04-26 18:02 51.88989 0.25654 359 ft 0 kts 313°
2026-04-26 18:08 51.88990 0.25654 351 ft 1 kts 313°
2026-04-26 18:08 51.89015 0.25609 352 ft 11 kts 313°
2026-04-26 18:08 51.89084 0.25490 351 ft 15 kts 313°
2026-04-26 18:09 51.89151 0.25374 355 ft 13 kts 313°
2026-04-26 18:09 51.89162 0.25262 351 ft 10 kts 231°
2026-04-26 18:09 51.89111 0.25180 351 ft 11 kts 223°
2026-04-26 18:09 51.89047 0.25085 360 ft 16 kts 222°
2026-04-26 18:10 51.88942 0.24927 351 ft 23 kts 223°
2026-04-26 18:10 51.88828 0.24756 351 ft 22 kts 223°
2026-04-26 18:10 51.88720 0.24593 348 ft 22 kts 223°
2026-04-26 18:10 51.88612 0.24432 349 ft 21 kts 223°
2026-04-26 18:11 51.88508 0.24275 348 ft 20 kts 223°
2026-04-26 18:11 51.88411 0.24129 346 ft 19 kts 223°
2026-04-26 18:11 51.88312 0.23980 353 ft 20 kts 223°
2026-04-26 18:11 51.88210 0.23827 344 ft 20 kts 223°
2026-04-26 18:12 51.88106 0.23673 338 ft 20 kts 223°
2026-04-26 18:12 51.88000 0.23513 340 ft 22 kts 223°
2026-04-26 18:12 51.87885 0.23340 336 ft 22 kts 222°
2026-04-26 18:12 51.87779 0.23182 337 ft 20 kts 223°
2026-04-26 18:13 51.87735 0.23034 339 ft 14 kts 298°
2026-04-26 18:13 51.87797 0.22920 339 ft 13 kts 313°
2026-04-26 18:13 51.87865 0.22801 331 ft 16 kts 313°
2026-04-26 18:13 51.87891 0.22756 328 ft 17 kts 313°
2026-04-26 18:14 51.87982 0.22704 331 ft 8 kts 40°
2026-04-26 18:14 51.88059 0.22820 332 ft 34 kts 43°
2026-04-26 18:14 51.88400 0.23335 338 ft 99 kts 43°
2026-04-26 18:14 51.89045 0.24310 355 ft 152 kts 44°
2026-04-26 18:15 51.89846 0.25557 752 ft 166 kts 47°
2026-04-26 18:15 51.90704 0.26851 1358 ft 173 kts 44°
2026-04-26 18:15 51.91625 0.28226 1768 ft 194 kts 43°
2026-04-26 18:15 51.92784 0.29589 2004 ft 219 kts 24°
2026-04-26 18:16 51.94329 0.30033 2369 ft 234 kts 354°
2026-04-26 18:16 51.96951 0.26806 3406 ft 261 kts 288°
2026-04-26 18:16 51.97338 0.23920 4181 ft 264 kts 278°
2026-04-26 18:17 51.97584 0.20954 4719 ft 265 kts 277°
2026-04-26 18:17 51.97827 0.17963 5186 ft 271 kts 277°
2026-04-26 18:17 51.97993 0.15949 5716 ft 272 kts 278°
2026-04-26 18:17 51.98379 0.11901 6836 ft 272 kts 279°
2026-04-26 18:18 51.98587 0.09894 7352 ft 273 kts 279°
2026-04-26 18:18 51.98898 0.06852 8107 ft 274 kts 276°
2026-04-26 18:18 51.98774 0.03997 8881 ft 272 kts 258°
2026-04-26 18:18 51.98364 0.00979 9566 ft 277 kts 258°
2026-04-26 18:19 51.97951 -0.02090 10269 ft 281 kts 258°
2026-04-26 18:19 51.97533 -0.05261 10637 ft 298 kts 258°
2026-04-26 18:19 51.97089 -0.08658 10804 ft 319 kts 258°
2026-04-26 18:19 51.96621 -0.12247 11261 ft 330 kts 258°
2026-04-26 18:20 51.96143 -0.15905 11918 ft 333 kts 257°
2026-04-26 18:20 51.95661 -0.19592 12675 ft 334 kts 257°
2026-04-26 18:20 51.95177 -0.23285 13172 ft 336 kts 257°
2026-04-26 18:20 51.94853 -0.25755 13291 ft 338 kts 257°
2026-04-26 18:21 51.94198 -0.30740 13294 ft 339 kts 257°
2026-04-26 18:21 51.93706 -0.34473 13294 ft 339 kts 257°
2026-04-26 18:21 51.93214 -0.38202 13299 ft 338 kts 257°
2026-04-26 18:21 51.92722 -0.41923 13292 ft 338 kts 257°
2026-04-26 18:22 51.92228 -0.45644 13292 ft 338 kts 257°
2026-04-26 18:22 51.91733 -0.49364 13294 ft 338 kts 257°
2026-04-26 18:22 51.91236 -0.53083 13294 ft 338 kts 257°
2026-04-26 18:22 51.90740 -0.56796 13311 ft 341 kts 257°
2026-04-26 18:23 51.90231 -0.60585 13868 ft 345 kts 257°
2026-04-26 18:23 51.89722 -0.64376 14684 ft 344 kts 257°
2026-04-26 18:23 51.89211 -0.68164 15433 ft 345 kts 257°
2026-04-26 18:23 51.88697 -0.71971 16103 ft 349 kts 257°
2026-04-26 18:24 51.88174 -0.75833 16782 ft 352 kts 257°
2026-04-26 18:24 51.87646 -0.79721 17471 ft 355 kts 258°
2026-04-26 18:24 51.87121 -0.83582 18118 ft 359 kts 258°
2026-04-26 18:24 51.86486 -0.87503 18239 ft 360 kts 247°
2026-04-26 18:25 51.85063 -0.90830 18257 ft 365 kts 224°
2026-04-26 18:25 51.82957 -0.93138 18260 ft 370 kts 207°
2026-04-26 18:25 51.80565 -0.94702 18281 ft 371 kts 203°
2026-04-26 18:25 51.78156 -0.96163 18264 ft 371 kts 202°
2026-04-26 18:26 51.75734 -0.97630 18275 ft 371 kts 202°
2026-04-26 18:26 51.73328 -0.99112 18268 ft 371 kts 203°
2026-04-26 18:26 51.70912 -1.00623 18353 ft 375 kts 203°
2026-04-26 18:26 51.68488 -1.02152 18913 ft 377 kts 203°
2026-04-26 18:27 51.66036 -1.03700 19684 ft 374 kts 203°
2026-04-26 18:27 51.63610 -1.05204 20302 ft 377 kts 201°
2026-04-26 18:27 51.61035 -1.06203 20831 ft 384 kts 190°
2026-04-26 18:27 51.58356 -1.06477 21371 ft 390 kts 181°
2026-04-26 18:28 51.55632 -1.06018 21922 ft 396 kts 171°
2026-04-26 18:28 51.52934 -1.04944 22485 ft 400 kts 167°
2026-04-26 18:28 51.50250 -1.03746 23007 ft 404 kts 167°
2026-04-26 18:28 51.47540 -1.02507 23511 ft 407 kts 167°
2026-04-26 18:29 51.44793 -1.01258 24006 ft 410 kts 167°
2026-04-26 18:29 51.42039 -0.99981 24433 ft 414 kts 164°
2026-04-26 18:29 51.39371 -0.98168 24847 ft 419 kts 157°
2026-04-26 18:29 51.36748 -0.96105 25275 ft 422 kts 156°
2026-04-26 18:30 51.34110 -0.93980 25630 ft 427 kts 156°
2026-04-26 18:30 51.31439 -0.91831 25982 ft 431 kts 156°
2026-04-26 18:30 51.28753 -0.89689 26370 ft 433 kts 156°
2026-04-26 18:30 51.26042 -0.87549 26786 ft 435 kts 156°
2026-04-26 18:31 51.23311 -0.85415 27178 ft 438 kts 157°
2026-04-26 18:31 51.20564 -0.83281 27541 ft 441 kts 157°
2026-04-26 18:31 51.17795 -0.81140 27902 ft 444 kts 157°
2026-04-26 18:31 51.15011 -0.78992 28267 ft 446 kts 157°
2026-04-26 18:32 51.12198 -0.76826 28626 ft 449 kts 157°
2026-04-26 18:32 51.09393 -0.74668 28985 ft 451 kts 157°
2026-04-26 18:32 51.06552 -0.72486 29319 ft 454 kts 157°
2026-04-26 18:32 51.03698 -0.70296 29656 ft 456 kts 157°
2026-04-26 18:33 51.00833 -0.68100 29979 ft 459 kts 157°
2026-04-26 18:33 50.97961 -0.65902 30303 ft 461 kts 157°
2026-04-26 18:33 50.95072 -0.63693 30669 ft 460 kts 157°
2026-04-26 18:33 50.92194 -0.61495 31129 ft 457 kts 157°
2026-04-26 18:34 50.89333 -0.59311 31596 ft 454 kts 158°
2026-04-26 18:34 50.86492 -0.57148 32006 ft 452 kts 158°
2026-04-26 18:34 50.83658 -0.54993 32352 ft 452 kts 158°
2026-04-26 18:34 50.80829 -0.52847 32706 ft 452 kts 158°
2026-04-26 18:35 50.77999 -0.50701 33105 ft 450 kts 158°
2026-04-26 18:35 50.75181 -0.48568 33521 ft 448 kts 158°
2026-04-26 18:35 50.72381 -0.46450 33893 ft 446 kts 158°
2026-04-26 18:35 50.69576 -0.44333 34238 ft 446 kts 158°
2026-04-26 18:36 50.66783 -0.42227 34534 ft 445 kts 158°
2026-04-26 18:36 50.64000 -0.40131 34809 ft 444 kts 158°
2026-04-26 18:36 50.61210 -0.38034 35049 ft 444 kts 158°
2026-04-26 18:36 50.58412 -0.35933 35265 ft 445 kts 158°
2026-04-26 18:37 50.52817 -0.31741 35263 ft 450 kts 158°
2026-04-26 18:37 50.47159 -0.27508 35250 ft 443 kts 158°
2026-04-26 18:38 50.41647 -0.23396 35244 ft 442 kts 158°
2026-04-26 18:38 50.36101 -0.19274 35249 ft 441 kts 158°
2026-04-26 18:39 50.30547 -0.15154 35263 ft 442 kts 158°
2026-04-26 18:39 50.25019 -0.11063 35258 ft 442 kts 158°
2026-04-26 18:40 50.19439 -0.06945 35251 ft 443 kts 158°
2026-04-26 18:40 50.13864 -0.02840 35249 ft 443 kts 158°
2026-04-26 18:41 50.08194 0.00879 35237 ft 440 kts 168°
2026-04-26 18:41 50.02270 0.03165 35257 ft 439 kts 170°
2026-04-26 18:42 49.96330 0.05397 35232 ft 441 kts 169°
2026-04-26 18:42 49.90371 0.07700 35247 ft 442 kts 169°
2026-04-26 18:43 49.84391 0.10037 35248 ft 443 kts 169°
2026-04-26 18:43 49.78415 0.12370 35232 ft 444 kts 169°
2026-04-26 18:44 49.72419 0.14702 35236 ft 444 kts 169°
2026-04-26 18:44 49.66438 0.17032 35245 ft 444 kts 169°
2026-04-26 18:45 49.60452 0.19457 35230 ft 444 kts 168°
2026-04-26 18:45 49.54487 0.21889 35244 ft 443 kts 168°
2026-04-26 18:46 49.48527 0.24300 35234 ft 443 kts 168°
2026-04-26 18:46 49.42574 0.26697 35239 ft 441 kts 168°
2026-04-26 18:47 49.36638 0.29081 35239 ft 441 kts 168°
2026-04-26 18:47 49.30727 0.31449 35235 ft 440 kts 168°
2026-04-26 18:48 49.24818 0.33909 35236 ft 439 kts 167°
2026-04-26 18:48 49.18926 0.36406 35225 ft 439 kts 167°
2026-04-26 18:49 49.13051 0.38880 35224 ft 438 kts 168°
2026-04-26 18:49 49.07171 0.41341 35205 ft 438 kts 167°
2026-04-26 18:50 49.01316 0.43783 35219 ft 438 kts 167°
2026-04-26 18:50 48.95457 0.46221 35218 ft 438 kts 168°
2026-04-26 18:51 48.89574 0.48664 35226 ft 437 kts 168°
2026-04-26 18:51 48.83737 0.51083 35217 ft 436 kts 168°
2026-04-26 18:52 48.77916 0.53482 35218 ft 435 kts 168°
2026-04-26 18:52 48.72065 0.55779 35214 ft 434 kts 169°
2026-04-26 18:53 48.66208 0.58048 35214 ft 434 kts 168°
2026-04-26 18:53 48.60375 0.60318 35212 ft 433 kts 168°
2026-04-26 18:54 48.54532 0.62593 35207 ft 433 kts 168°
2026-04-26 18:54 48.48710 0.64890 35210 ft 433 kts 167°
2026-04-26 18:55 48.42884 0.67271 35192 ft 434 kts 167°
2026-04-26 18:55 48.37057 0.69647 35208 ft 433 kts 167°
2026-04-26 18:56 48.31237 0.72003 35201 ft 434 kts 167°
2026-04-26 18:56 48.25409 0.74355 35199 ft 435 kts 167°
2026-04-26 18:57 48.21486 0.75916 35181 ft 435 kts 168°
2026-04-26 18:57 48.13682 0.78980 35182 ft 436 kts 168°
2026-04-26 18:58 48.07807 0.81283 35198 ft 437 kts 168°
2026-04-26 18:58 48.01922 0.83589 35183 ft 438 kts 168°
2026-04-26 18:59 47.96011 0.85902 35180 ft 439 kts 168°
2026-04-26 18:59 47.90090 0.88212 35196 ft 440 kts 168°
2026-04-26 19:00 47.84241 0.90489 35184 ft 441 kts 168°
2026-04-26 19:00 47.78420 0.92744 35178 ft 442 kts 168°
2026-04-26 19:01 47.72455 0.95049 35191 ft 443 kts 168°
2026-04-26 19:01 47.66469 0.97357 35179 ft 445 kts 168°
2026-04-26 19:02 47.60482 0.99662 35192 ft 445 kts 168°
2026-04-26 19:02 47.56485 1.01198 35178 ft 446 kts 168°
2026-04-26 19:03 47.48495 1.04261 35188 ft 446 kts 168°
2026-04-26 19:03 47.43475 1.06086 35161 ft 446 kts 173°
2026-04-26 19:04 47.37335 1.06432 35241 ft 438 kts 184°
2026-04-26 19:04 47.31218 1.06189 35202 ft 440 kts 184°
2026-04-26 19:05 47.22041 1.05928 35162 ft 441 kts 184°
2026-04-26 19:06 47.15908 1.05793 35160 ft 440 kts 184°
2026-04-26 19:06 47.09793 1.05660 35169 ft 440 kts 184°
2026-04-26 19:07 47.03665 1.05524 35163 ft 440 kts 184°
2026-04-26 19:07 46.97548 1.05319 35165 ft 439 kts 185°
2026-04-26 19:08 46.91466 1.05035 35166 ft 439 kts 184°
2026-04-26 19:08 46.85357 1.04755 35167 ft 439 kts 184°
2026-04-26 19:09 46.79242 1.04487 35156 ft 439 kts 184°
2026-04-26 19:09 46.73136 1.04224 35170 ft 439 kts 184°
2026-04-26 19:10 46.67010 1.03961 35149 ft 440 kts 184°
2026-04-26 19:10 46.60901 1.03698 35170 ft 440 kts 184°
2026-04-26 19:11 46.54788 1.03436 35155 ft 440 kts 184°
2026-04-26 19:11 46.48659 1.03216 35168 ft 440 kts 183°
2026-04-26 19:12 46.42572 1.03165 35167 ft 441 kts 182°
2026-04-26 19:12 46.36424 1.03134 35165 ft 442 kts 182°
2026-04-26 19:13 46.30263 1.03085 35166 ft 442 kts 183°
2026-04-26 19:13 46.24118 1.03025 35166 ft 443 kts 183°
2026-04-26 19:14 46.17960 1.02962 35165 ft 443 kts 183°
2026-04-26 19:14 46.11849 1.02900 35172 ft 443 kts 182°
2026-04-26 19:15 46.05683 1.02839 35176 ft 444 kts 182°
2026-04-26 19:15 45.99502 1.02777 35181 ft 444 kts 182°
2026-04-26 19:16 45.93319 1.02716 35170 ft 444 kts 182°
2026-04-26 19:16 45.87147 1.02655 35188 ft 444 kts 182°
2026-04-26 19:17 45.80956 1.02561 35178 ft 444 kts 185°
2026-04-26 19:17 45.74822 1.01733 35190 ft 443 kts 189°
2026-04-26 19:18 45.68781 1.00676 35170 ft 443 kts 189°
2026-04-26 19:18 45.62573 0.99624 35152 ft 444 kts 188°
2026-04-26 19:19 45.56441 0.98639 35142 ft 444 kts 188°
2026-04-26 19:19 45.50308 0.97677 35156 ft 444 kts 188°
2026-04-26 19:20 45.44166 0.96720 35169 ft 444 kts 188°
2026-04-26 19:20 45.38032 0.95765 35151 ft 444 kts 188°
2026-04-26 19:21 45.31889 0.94809 35136 ft 444 kts 188°
2026-04-26 19:21 45.25748 0.93857 35131 ft 445 kts 188°
2026-04-26 19:22 45.19610 0.92906 35138 ft 444 kts 188°
2026-04-26 19:22 45.13487 0.91960 35134 ft 445 kts 188°
2026-04-26 19:23 45.07322 0.91009 35132 ft 445 kts 188°
2026-04-26 19:23 45.01162 0.90061 35134 ft 446 kts 188°
2026-04-26 19:24 44.95131 0.89135 35130 ft 446 kts 187°
2026-04-26 19:24 44.85866 0.87717 35136 ft 447 kts 187°
2026-04-26 19:25 44.80687 0.86926 35134 ft 447 kts 187°
2026-04-26 19:25 44.73507 0.85831 35126 ft 448 kts 187°
2026-04-26 19:26 44.67296 0.84887 35135 ft 447 kts 187°
2026-04-26 19:26 44.61104 0.83948 35123 ft 448 kts 187°
2026-04-26 19:27 44.54917 0.83011 35132 ft 447 kts 187°
2026-04-26 19:27 44.48728 0.82076 35142 ft 447 kts 187°
2026-04-26 19:28 44.42548 0.81144 35132 ft 447 kts 187°
2026-04-26 19:28 44.36368 0.80215 35138 ft 446 kts 187°
2026-04-26 19:29 44.30183 0.79286 35137 ft 447 kts 187°
2026-04-26 19:29 44.24012 0.78362 35125 ft 447 kts 187°
2026-04-26 19:30 44.17831 0.77438 35133 ft 446 kts 187°
2026-04-26 19:30 44.12663 0.76667 35133 ft 446 kts 187°
2026-04-26 19:31 44.05485 0.75598 35138 ft 446 kts 187°
2026-04-26 19:31 43.99324 0.74683 35131 ft 445 kts 187°
2026-04-26 19:32 43.93162 0.73770 35137 ft 445 kts 187°
2026-04-26 19:32 43.87015 0.72860 35148 ft 444 kts 187°
2026-04-26 19:33 43.80864 0.71952 35143 ft 444 kts 187°
2026-04-26 19:33 43.74733 0.71049 35153 ft 443 kts 187°
2026-04-26 19:34 43.68598 0.70147 35156 ft 443 kts 187°
2026-04-26 19:34 43.62478 0.69249 35148 ft 443 kts 186°
2026-04-26 19:35 43.56349 0.68352 35158 ft 443 kts 186°
2026-04-26 19:35 43.50246 0.67460 35163 ft 442 kts 186°
2026-04-26 19:36 43.45144 0.66716 35164 ft 442 kts 186°
2026-04-26 19:36 43.37987 0.65675 35166 ft 442 kts 186°
2026-04-26 19:37 43.31880 0.64788 35165 ft 442 kts 186°
2026-04-26 19:37 43.25729 0.63896 35176 ft 442 kts 186°
2026-04-26 19:38 43.19630 0.63014 35174 ft 442 kts 186°
2026-04-26 19:38 43.13497 0.62129 35177 ft 442 kts 186°
2026-04-26 19:39 43.07379 0.61247 35182 ft 442 kts 186°
2026-04-26 19:39 43.01271 0.60369 35211 ft 441 kts 186°
2026-04-26 19:40 42.95170 0.59494 35200 ft 442 kts 186°
2026-04-26 19:40 42.89055 0.58618 35200 ft 442 kts 186°
2026-04-26 19:41 42.82960 0.57747 35209 ft 441 kts 186°
2026-04-26 19:41 42.78899 0.57167 35214 ft 441 kts 186°
2026-04-26 19:42 42.70750 0.56007 35220 ft 441 kts 186°
2026-04-26 19:42 42.64682 0.54739 35217 ft 440 kts 191°
2026-04-26 19:43 42.58707 0.53138 35200 ft 440 kts 192°
2026-04-26 19:43 42.53627 0.51795 35208 ft 440 kts 191°
2026-04-26 19:44 42.47609 0.50249 35196 ft 440 kts 191°
2026-04-26 19:44 42.41641 0.48731 35197 ft 440 kts 191°
2026-04-26 19:45 42.35627 0.47203 35183 ft 440 kts 191°
2026-04-26 19:45 42.29572 0.45656 35161 ft 440 kts 191°
2026-04-26 19:46 42.23568 0.44122 35162 ft 440 kts 191°
2026-04-26 19:46 42.17708 0.42628 35154 ft 440 kts 191°
2026-04-26 19:47 42.13693 0.41606 35151 ft 440 kts 191°
2026-04-26 19:47 42.05685 0.39573 35146 ft 439 kts 191°
2026-04-26 19:48 41.99690 0.38054 35128 ft 439 kts 191°
2026-04-26 19:48 41.94696 0.36793 35124 ft 440 kts 191°
2026-04-26 19:49 41.88661 0.35276 35141 ft 439 kts 191°
2026-04-26 19:49 41.83616 0.34010 35126 ft 441 kts 191°
2026-04-26 19:50 41.77762 0.32542 35129 ft 441 kts 191°
2026-04-26 19:50 41.70661 0.30771 35125 ft 443 kts 191°
2026-04-26 19:51 41.64513 0.29249 35130 ft 443 kts 191°
2026-04-26 19:51 41.58456 0.27752 35117 ft 444 kts 191°
2026-04-26 19:52 41.52833 0.26363 35127 ft 444 kts 191°
2026-04-26 19:52 41.46586 0.24824 35124 ft 444 kts 191°
2026-04-26 19:53 41.40217 0.23256 35113 ft 444 kts 191°
2026-04-26 19:53 41.34140 0.21763 35113 ft 443 kts 192°
2026-04-26 19:54 41.28097 0.20233 35104 ft 441 kts 192°
2026-04-26 19:54 41.22072 0.18728 35114 ft 440 kts 191°
2026-04-26 19:55 41.16068 0.17256 35113 ft 439 kts 191°
2026-04-26 19:55 41.10113 0.15515 35104 ft 437 kts 198°
2026-04-26 19:56 41.04322 0.13122 35113 ft 436 kts 199°
2026-04-26 19:56 40.98580 0.10743 35131 ft 436 kts 198°
2026-04-26 19:57 40.92737 0.08401 35139 ft 435 kts 198°
2026-04-26 19:57 40.86929 0.06093 35132 ft 436 kts 198°
2026-04-26 19:58 40.81116 0.03760 35143 ft 437 kts 198°
2026-04-26 19:58 40.75339 0.01432 35132 ft 438 kts 198°
2026-04-26 19:59 40.69621 -0.00865 35155 ft 438 kts 198°
2026-04-26 19:59 40.63788 -0.03204 35147 ft 439 kts 198°
2026-04-26 20:00 40.57940 -0.05544 35143 ft 439 kts 198°
2026-04-26 20:00 40.52090 -0.07871 35142 ft 439 kts 198°
2026-04-26 20:01 40.46231 -0.10182 35118 ft 439 kts 198°
2026-04-26 20:01 40.40381 -0.12486 35122 ft 438 kts 198°
2026-04-26 20:02 40.34543 -0.14785 35106 ft 438 kts 198°
2026-04-26 20:02 40.29703 -0.16689 35102 ft 437 kts 198°
2026-04-26 20:03 40.22893 -0.19365 35110 ft 437 kts 198°
2026-04-26 20:03 40.17074 -0.21667 35120 ft 436 kts 198°
2026-04-26 20:04 40.11266 -0.23962 35125 ft 436 kts 198°
2026-04-26 20:04 40.05460 -0.26251 35149 ft 436 kts 198°
2026-04-26 20:05 39.99693 -0.28519 35157 ft 436 kts 197°
2026-04-26 20:05 39.93820 -0.30787 35146 ft 437 kts 197°
2026-04-26 20:06 39.88020 -0.33015 35150 ft 438 kts 197°
2026-04-26 20:06 39.82191 -0.35282 35157 ft 438 kts 197°
2026-04-26 20:07 39.76341 -0.37561 35159 ft 439 kts 197°
2026-04-26 20:07 39.70495 -0.39833 35160 ft 440 kts 197°
2026-04-26 20:08 39.64870 -0.42013 35158 ft 441 kts 197°
2026-04-26 20:08 39.59041 -0.44269 35156 ft 441 kts 197°
2026-04-26 20:09 39.53117 -0.46557 35162 ft 441 kts 197°
2026-04-26 20:09 39.47280 -0.49089 35116 ft 442 kts 207°
2026-04-26 20:10 39.44574 -0.50928 35220 ft 438 kts 209°
2026-04-26 20:10 39.41939 -0.52804 35173 ft 439 kts 210°
2026-04-26 20:10 39.36639 -0.56588 35159 ft 440 kts 209°
2026-04-26 20:11 39.31257 -0.60363 35159 ft 440 kts 209°
2026-04-26 20:12 39.23168 -0.65969 35165 ft 440 kts 209°
2026-04-26 20:12 39.17770 -0.69700 35160 ft 440 kts 209°
2026-04-26 20:13 39.12376 -0.73425 35163 ft 440 kts 209°
2026-04-26 20:13 39.06964 -0.77154 35149 ft 441 kts 209°
2026-04-26 20:14 39.01555 -0.80876 35171 ft 440 kts 209°
2026-04-26 20:14 38.96152 -0.84591 35161 ft 441 kts 209°
2026-04-26 20:15 38.90783 -0.88278 35171 ft 441 kts 209°
2026-04-26 20:15 38.85379 -0.91982 35158 ft 441 kts 209°
2026-04-26 20:16 38.79946 -0.95700 35170 ft 441 kts 209°
2026-04-26 20:16 38.74537 -0.99395 35163 ft 441 kts 209°
2026-04-26 20:17 38.69119 -1.03088 35157 ft 441 kts 209°
2026-04-26 20:17 38.63704 -1.06771 35171 ft 441 kts 209°
2026-04-26 20:18 38.58285 -1.10454 35158 ft 441 kts 209°
2026-04-26 20:18 38.52858 -1.14135 35172 ft 441 kts 209°
2026-04-26 20:19 38.47443 -1.17803 35163 ft 441 kts 209°
2026-04-26 20:19 38.42017 -1.21471 35158 ft 441 kts 209°
2026-04-26 20:20 38.36600 -1.25127 35157 ft 441 kts 209°
2026-04-26 20:20 38.31175 -1.28783 35166 ft 441 kts 209°
2026-04-26 20:21 38.25792 -1.32403 35103 ft 430 kts 209°
2026-04-26 20:21 38.23153 -1.34176 34712 ft 426 kts 209°
2026-04-26 20:21 38.20560 -1.35916 34465 ft 420 kts 209°
2026-04-26 20:21 38.17988 -1.37641 34049 ft 418 kts 209°
2026-04-26 20:22 38.15412 -1.39368 33652 ft 415 kts 209°
2026-04-26 20:22 38.12869 -1.41071 33280 ft 412 kts 209°
2026-04-26 20:22 38.10339 -1.42764 32899 ft 409 kts 209°
2026-04-26 20:22 38.07841 -1.44435 32576 ft 405 kts 209°
2026-04-26 20:23 38.05354 -1.46097 32174 ft 403 kts 209°
2026-04-26 20:23 38.02882 -1.47748 31835 ft 400 kts 209°
2026-04-26 20:23 38.00436 -1.49380 31483 ft 397 kts 209°
2026-04-26 20:23 37.97987 -1.51013 31128 ft 395 kts 209°
2026-04-26 20:24 37.95561 -1.52630 30781 ft 393 kts 208°
2026-04-26 20:24 37.93156 -1.54230 30436 ft 391 kts 209°
2026-04-26 20:24 37.90745 -1.55834 30077 ft 389 kts 208°
2026-04-26 20:24 37.88353 -1.57405 29677 ft 387 kts 208°
2026-04-26 20:25 37.85982 -1.58944 29326 ft 383 kts 208°
2026-04-26 20:25 37.84406 -1.59964 29087 ft 381 kts 208°
2026-04-26 20:25 37.81257 -1.62000 28585 ft 378 kts 208°
2026-04-26 20:25 37.78968 -1.63480 28279 ft 373 kts 208°
2026-04-26 20:26 37.76668 -1.64968 27896 ft 372 kts 208°
2026-04-26 20:26 37.74367 -1.66457 27535 ft 369 kts 208°
2026-04-26 20:26 37.72085 -1.67934 27203 ft 367 kts 208°
2026-04-26 20:26 37.69818 -1.69399 26855 ft 365 kts 208°
2026-04-26 20:27 37.67567 -1.70853 26517 ft 363 kts 208°
2026-04-26 20:27 37.65331 -1.72297 26176 ft 361 kts 208°
2026-04-26 20:27 37.63101 -1.73737 25838 ft 359 kts 208°
2026-04-26 20:27 37.60885 -1.75166 25515 ft 357 kts 208°
2026-04-26 20:28 37.58679 -1.76588 25168 ft 355 kts 208°
2026-04-26 20:28 37.56482 -1.78003 24838 ft 354 kts 208°
2026-04-26 20:28 37.54292 -1.79413 24514 ft 353 kts 208°
2026-04-26 20:28 37.52105 -1.80819 24179 ft 352 kts 207°
2026-04-26 20:29 37.49924 -1.82221 23834 ft 352 kts 207°
2026-04-26 20:29 37.47751 -1.83617 23443 ft 352 kts 207°
2026-04-26 20:29 37.45572 -1.85016 23091 ft 350 kts 208°
2026-04-26 20:29 37.43424 -1.86394 22751 ft 348 kts 207°
2026-04-26 20:30 37.41266 -1.87778 22411 ft 346 kts 207°
2026-04-26 20:30 37.39134 -1.89143 22081 ft 344 kts 207°
2026-04-26 20:30 37.37006 -1.90506 21755 ft 342 kts 207°
2026-04-26 20:30 37.34888 -1.91862 21417 ft 340 kts 207°
2026-04-26 20:31 37.32785 -1.93208 21100 ft 338 kts 207°
2026-04-26 20:31 37.30696 -1.94543 20775 ft 337 kts 207°
2026-04-26 20:31 37.28609 -1.95876 20449 ft 335 kts 207°
2026-04-26 20:31 37.26534 -1.97200 20136 ft 334 kts 208°
2026-04-26 20:32 37.24661 -1.98867 19720 ft 333 kts 230°
2026-04-26 20:32 37.23364 -2.01257 19106 ft 338 kts 243°
2026-04-26 20:32 37.22365 -2.03895 19005 ft 328 kts 247°
2026-04-26 20:32 37.21445 -2.06532 18674 ft 328 kts 247°
2026-04-26 20:33 37.20543 -2.09131 18370 ft 326 kts 249°
2026-04-26 20:33 37.19638 -2.11740 18025 ft 325 kts 249°
2026-04-26 20:33 37.18730 -2.14321 17715 ft 322 kts 247°
2026-04-26 20:33 37.17819 -2.16875 17414 ft 319 kts 248°
2026-04-26 20:34 37.16909 -2.19409 17092 ft 317 kts 248°
2026-04-26 20:34 37.16008 -2.21901 16792 ft 315 kts 248°
2026-04-26 20:34 37.15100 -2.24405 16461 ft 314 kts 247°
2026-04-26 20:34 37.14197 -2.26885 16154 ft 312 kts 246°
2026-04-26 20:35 37.13296 -2.29361 15812 ft 312 kts 246°
2026-04-26 20:35 37.12395 -2.31833 15449 ft 312 kts 246°
2026-04-26 20:35 37.11494 -2.34301 15117 ft 312 kts 246°
2026-04-26 20:35 37.10600 -2.36748 14753 ft 312 kts 246°
2026-04-26 20:36 37.09992 -2.38411 14566 ft 311 kts 246°
2026-04-26 20:36 37.08806 -2.41654 14209 ft 308 kts 246°
2026-04-26 20:36 37.08203 -2.43300 14004 ft 307 kts 246°
2026-04-26 20:36 37.07030 -2.46502 13602 ft 304 kts 246°
2026-04-26 20:37 37.06151 -2.48901 13287 ft 302 kts 246°
2026-04-26 20:37 37.05276 -2.51284 12956 ft 301 kts 246°
2026-04-26 20:37 37.04393 -2.53688 12411 ft 308 kts 246°
2026-04-26 20:37 37.03488 -2.56148 11895 ft 313 kts 246°
2026-04-26 20:38 37.02867 -2.57837 11506 ft 319 kts 245°
2026-04-26 20:38 37.01945 -2.60333 11063 ft 321 kts 246°
2026-04-26 20:38 37.01018 -2.62842 10645 ft 322 kts 246°
2026-04-26 20:38 37.00068 -2.65413 10210 ft 323 kts 246°
2026-04-26 20:39 36.99123 -2.67970 9783 ft 324 kts 246°
2026-04-26 20:39 36.98176 -2.70529 9317 ft 326 kts 246°
2026-04-26 20:39 36.97213 -2.73098 8835 ft 326 kts 243°
2026-04-26 20:39 36.95826 -2.75344 8271 ft 331 kts 219°
2026-04-26 20:40 36.93834 -2.76734 7888 ft 328 kts 198°
2026-04-26 20:40 36.91667 -2.77466 7740 ft 317 kts 191°
2026-04-26 20:40 36.89529 -2.77715 7736 ft 301 kts 173°
2026-04-26 20:40 36.87526 -2.77327 7824 ft 285 kts 170°
2026-04-26 20:41 36.85577 -2.77344 7558 ft 284 kts 192°
2026-04-26 20:41 36.83763 -2.78328 7404 ft 278 kts 210°
2026-04-26 20:41 36.82328 -2.79918 7384 ft 281 kts 234°
2026-04-26 20:41 36.81412 -2.82091 7031 ft 288 kts 247°
2026-04-26 20:42 36.80636 -2.84394 6680 ft 289 kts 245°
2026-04-26 20:42 36.79431 -2.86400 6244 ft 292 kts 218°
2026-04-26 20:42 36.77640 -2.87525 5885 ft 289 kts 191°
2026-04-26 20:42 36.75655 -2.87550 5509 ft 285 kts 164°
2026-04-26 20:43 36.73898 -2.86484 5145 ft 280 kts 136°
2026-04-26 20:43 36.72821 -2.84601 5196 ft 259 kts 108°
2026-04-26 20:43 36.72618 -2.82478 5207 ft 241 kts 81°
2026-04-26 20:43 36.72980 -2.80493 5187 ft 229 kts 72°
2026-04-26 20:44 36.73466 -2.78659 5193 ft 218 kts 70°
2026-04-26 20:44 36.73999 -2.76897 5191 ft 216 kts 68°
2026-04-26 20:44 36.74544 -2.75189 5191 ft 215 kts 68°
2026-04-26 20:44 36.75105 -2.73441 5183 ft 213 kts 68°
2026-04-26 20:45 36.75648 -2.71733 5195 ft 211 kts 68°
2026-04-26 20:45 36.76188 -2.70051 5191 ft 213 kts 68°
2026-04-26 20:45 36.76702 -2.68270 5195 ft 218 kts 72°
2026-04-26 20:45 36.77118 -2.66478 5173 ft 218 kts 73°
2026-04-26 20:46 36.77515 -2.64642 4772 ft 221 kts 73°
2026-04-26 20:46 36.77906 -2.62805 4458 ft 217 kts 73°
2026-04-26 20:46 36.78277 -2.61032 4130 ft 215 kts 73°
2026-04-26 20:46 36.78657 -2.59245 3804 ft 212 kts 72°
2026-04-26 20:47 36.79223 -2.57569 3461 ft 209 kts 64°
2026-04-26 20:47 36.79586 -2.56471 3270 ft 206 kts 68°
2026-04-26 20:47 36.80173 -2.54191 2790 ft 206 kts 70°
2026-04-26 20:47 36.80591 -2.52497 2460 ft 203 kts 71°
2026-04-26 20:48 36.80992 -2.50893 2410 ft 182 kts 70°
2026-04-26 20:48 36.81332 -2.49427 2143 ft 173 kts 72°
2026-04-26 20:48 36.81648 -2.47972 1742 ft 173 kts 73°
2026-04-26 20:48 36.81991 -2.46564 1386 ft 167 kts 70°
2026-04-26 20:49 36.82361 -2.45223 1013 ft 162 kts 71°
2026-04-26 20:49 36.82709 -2.43926 811 ft 149 kts 73°
2026-04-26 20:49 36.83031 -2.42774 767 ft 134 kts 72°
2026-04-26 20:49 36.83301 -2.41645 587 ft 136 kts 76°
2026-04-26 20:50 36.83551 -2.40498 383 ft 137 kts 76°
2026-04-26 20:50 36.83826 -2.39369 219 ft 135 kts 75°
2026-04-26 20:50 36.84077 -2.38336 59 ft 135 kts 76°
2026-04-26 20:50 36.84301 -2.37386 60 ft 91 kts 73°
2026-04-26 20:51 36.84448 -2.36786 55 ft 67 kts 73°
2026-04-26 20:51 36.84593 -2.36194 60 ft 70 kts 73°
2026-04-26 20:51 36.84681 -2.35834 55 ft 22 kts 73°
2026-04-26 20:51 36.84724 -2.35651 61 ft 22 kts 74°
2026-04-26 20:52 36.84768 -2.35472 59 ft 21 kts 71°
2026-04-26 20:52 36.84839 -2.35340 60 ft 12 kts 27°
2026-04-26 20:52 36.84917 -2.35346 58 ft 12 kts 327°
2026-04-26 20:52 36.84953 -2.35431 62 ft 11 kts 272°
2026-04-26 20:53 36.84933 -2.35525 64 ft 11 kts 252°
2026-04-26 20:53 36.84910 -2.35619 57 ft 13 kts 253°
2026-04-26 20:53 36.84882 -2.35734 58 ft 15 kts 254°
2026-04-26 20:53 36.84850 -2.35860 64 ft 16 kts 251°
2026-04-26 20:54 36.84816 -2.35999 63 ft 18 kts 253°
2026-04-26 20:54 36.84779 -2.36153 60 ft 19 kts 253°
2026-04-26 20:54 36.84741 -2.36307 65 ft 20 kts 252°
2026-04-26 20:54 36.84697 -2.36485 65 ft 22 kts 253°
2026-04-26 20:55 36.84656 -2.36650 57 ft 23 kts 252°
2026-04-26 20:55 36.84624 -2.36779 58 ft 9 kts 253°
2026-04-26 20:55 36.84614 -2.36868 65 ft 11 kts 276°
2026-04-26 20:55 36.84649 -2.36955 61 ft 12 kts 288°
2026-04-26 20:56 36.84648 -2.36985 66 ft 0 kts 261°
2026-04-26 20:57 36.84649 -2.36988 66 ft 1 kts 267°
2026-04-26 20:57 36.84654 -2.37010 60 ft 6 kts 300°
2026-04-26 20:57 36.84692 -2.37040 68 ft 6 kts 340°
2026-04-26 20:57 36.84724 -2.37028 69 ft 0 kts 77°
2026-04-26 20:58 36.84723 -2.37022 69 ft 2 kts 103°
2026-04-26 20:58 36.84719 -2.37011 69 ft 1 kts 110°
2026-04-26 20:58 36.84716 -2.37003 69 ft 0 kts 113°